User: anonymous   Login
Location: Bois de la Silve
(44.4667°N, 6.7833°E)
Time: 07:58:48
(UTC+00:00)
Language:

Meteor 1-28 Rocket - Orbit

View from above orbital plane
View from above orbital plane
View from above satellite
View from above satellite

Ground track
Ground track

The orbit data is extracted from the following two-line orbital elements,

1 10114U 77057B   20265.92965494 +.00000190 +00000-0 +12688-4 0  9995
2 10114 097.3210 051.6786 0015381 109.6311 250.6585 15.17527322364192
Epoch (UTC): 21 September 2020 22:18:42
Eccentricity: 0.0015381
inclination: 97.3210°
perigee height: 503 km
apogee height: 524 km
right ascension of ascending node: 51.6786°
argument of perigee: 109.6311°
revolutions per day: 15.17527322
mean anomaly at epoch: 250.6585°
orbit number at epoch: 36419

The dashed part of the orbit path shows where the satellite is in the earth's shadow,  

DLR